Regional Weather Roundup
Issued by NWS

Home | Current Version | Previous Version | Graphics & Text | Print | Product List | Glossary On
Versions: 1 2 3 4 5 6 7 8 9 10 11 12 13 14 15 16 17 18 19 20 21 22 23 24 25 26 27 28 29 30 31 32 33 34 35 36 37 38 39 40 41 42 43 44 45 46 47 48 49 50
485
ASUS43 KDTX 060901
RWRMI
MICHIGAN HOURLY REGIONAL WEATHER ROUNDUP
NATIONAL WEATHER SERVICE DETROIT/PONTIAC MI
400 AM EST SAT FEB 06 2016

NOTE: "FAIR" INDICATES FEW OR NO CLOUDS BELOW 12,000 FEET WITH NO
SIGNIFICANT WEATHER AND/OR OBSTRUCTION TO VISIBILITY.

MIZ047>049-052>055-059>063-066>070-074>076-081>083-061000-
SOUTHEAST LOWER MICHIGAN

CITY           SKY/WX    TMP DP  RH WIND       PRES   REMARKS
ADRIAN         CLOUDY    33  21  61 W5        30.29S WCI  29
ALMA           CLEAR     24  20  85 SW6       30.24S WCI  16
ANN ARBOR      PTCLDY    23  19  85 W5        30.26S WCI  17
BAD AXE        CLOUDY    26  23  87 W3        30.21F
CARO           CLOUDY    24  20  85 W6        30.22S WCI  17
DETROIT CITY   MOCLDY    27  19  72 W8        30.26S WCI  19
DETROIT        CLOUDY    26  19  74 W8        30.28S WCI  18
FLINT          CLEAR     25  17  72 SW6       30.24F WCI  18
GROSSE ILE     PTCLDY    27  21  80 W6        30.27R WCI  20
HILLSDALE      MOCLDY    23  21  92 W3        30.25F
HOWELL         CLEAR     23  19  86 SW5       30.24F WCI  16

CITY           SKY/WX    TMP DP  RH WIND       PRES   REMARKS
JACKSON        CLOUDY    25  20  81 SW5       30.26S WCI  19
LAMBERTVILLE   CLEAR     26  22  85 W6        30.29S WCI  20
LANSING        CLEAR     20  16  84 SW6       30.25F WCI  12
LAPEER         FAIR      25  21  83 W6        30.22F WCI  18
MASON          CLEAR     22  19  89 CALM      30.25F
MONROE         PTCLDY    28  22  80 W7        30.28S WCI  20
MT. CLEMENS    CLOUDY    29  21  73 W8        30.23S WCI  21
PONTIAC        CLEAR     24  18  77 W7        30.23S WCI  16
PORT HOPE        N/A     26  22  84 CALM      30.20F
PORT HURON     CLOUDY    30  23  74 CALM      30.23F
TRI CITIES     MOCLDY    25  18  74 SW7       30.24S WCI  17
MIDLAND        MOCLDY    25  17  72 CALM      30.22F
TROY           PTCLDY    28  20  71 W8        30.26S WCI  20
SAGINAW HB     PTCLDY    27  21  80 SW3       30.24S
$$
MIZ043>046-050>051-056>058-064>065-071>073-077>080-061000-
SOUTHWEST LOWER MICHIGAN

CITY           SKY/WX    TMP DP  RH WIND       PRES   REMARKS
BATTLE CREEK   CLEAR     21  18  88 SW7       30.26F WCI  12
BENTON HARBOR  MOCLDY    27  23  85 S6        30.28F FOG     WCI  20
BIG RAPIDS     CLOUDY    23  19  83 SE3       30.19F
COLDWATER      CLOUDY    24  22  93 SW5       30.28S WCI  18
FREMONT        CLOUDY    22  18  85 S5        30.22F WCI  16
HOLLAND        CLEAR     19  16  88 S5        30.25F WCI  12
GRAND RAPIDS   PTCLDY    21  18  88 S5        30.24F WCI  15
IONIA          CLOUDY    22  18  87 SW6       30.24S WCI  14
KALAMAZOO      CLEAR     22  18  85 SW7       30.27S WCI  13
LUDINGTON      CLOUDY    32  23  69 W9        30.20F WCI  24
MARSHALL       PTCLDY    24  20  87 SW5       30.26S WCI  18
MOUNT PLEASANT PTCLDY    26  17  71 SW6       30.21S WCI  19
MUSKEGON       CLOUDY    32  21  64 SW9       30.24F WCI  24
SOUTH HAVEN    PTCLDY    26  24  91 S5        30.27F FOG     WCI  21
$$
MIZ016>042-061000-
NORTHERN LOWER MICHIGAN

CITY           SKY/WX    TMP DP  RH WIND       PRES   REMARKS
ALPENA         CLOUDY    22  16  78 SW6       30.16F WCI  14
BEAVER ISLAND  CLOUDY    30  19  64 SW21G31   30.11S WCI  17
BELLAIRE       CLOUDY    24  19  80 S3        30.17F
CADILLAC       CLOUDY    20  17  86 SW5       30.14F WCI  14
CHARLEVOIX     CLOUDY    29  22  77 SW9       30.16F WCI  20
FRANKFORT      CLOUDY    32  18  55 W8G17     30.17F WCI  25
GAYLORD        CLOUDY    21  16  81 SW12      30.11F WCI   9
GRAYLING       CLOUDY    19  15  82 SW5       30.16S WCI  13
HARBOR SPRINGS CLOUDY    25  20  81 SW8       30.12F WCI  16
HOUGHTON LAKE  CLOUDY    21  15  78 S5        30.16F WCI  15
MANISTEE       CLOUDY    23  16  74 CALM      30.19F
OSCODA         CLOUDY    23  19  83 SW8       30.18F WCI  14
ROGERS CITY    CLOUDY    22  16  75 SW7       30.14F WCI  14
TRAVERSE CITY  CLOUDY    26  18  71 CALM      30.16F
$$
MIZ007>008-015-061000-
EASTERN UPPER MICHIGAN

CITY           SKY/WX    TMP DP  RH WIND       PRES   REMARKS
KINROSS        CLOUDY    25  25 100 SW7       30.05F WCI  17
MACKINAC ISLAN CLOUDY    26  22  84 SW12G18   30.08F WCI  15
NEWBERRY       LGT SNOW  23  21  91 SW15      30.04F WCI  10
S. S. MARIE    CLOUDY    24  19  81 SW3       30.05F
$$
MIZ004>006-011>014-085-061000-
CENTRAL UPPER MICHIGAN

CITY           SKY/WX    TMP DP  RH WIND       PRES   REMARKS
MANISTIQUE     FLURRIES  26  18  72 W6        30.08F WCI  19
ESCANABA       CLOUDY    25  18  74 SW9       30.09F WCI  15
MENOMINEE      CLOUDY    25  18  74 W9        30.13F WCI  15
SAWYER-GWINN   CLOUDY    22  17  81 W9        30.03F WCI  12
$$
MIZ001>003-009>011-084-061000-
WESTERN UPPER MICHIGAN

CITY           SKY/WX    TMP DP  RH WIND       PRES   REMARKS
IRON MOUNTAIN  CLOUDY    24  15  68 W9        30.06F WCI  14
HOUGHTON       CLOUDY    25  17  72 W17       29.99F WCI  12
COPPER HARBOR    N/A     29  22  75 N20       30.00S WCI  16
IRONWOOD       CLOUDY    21  18  86 SW9       30.04S WCI  11
$$

ABBREVIATIONS USED IN REMARKS
   TC - TEMPERATURE IN CELSIUS
  WCI - WIND CHILL INDEX
   HX - HEAT INDEX
  VSB - VISIBILITY





USA.gov is the U.S. government's official web portal to all federal, state and local government web resources and services.